Location: Unspecified
(50.1700°N, 6.8600°E)
Time: 19:54:26
(UTC+00:00)

Cosmos 1076 Rocket - Pass Details

Date: 24 January 2019
Orbit: 589 x 613 km, 82.5° (Epoch: 16 February)

Event Time Altitude Azimuth Distance (km) Brightness Sun altitude
Exits shadow 05:25:59 15° 339° (NNW) 1,631 5.4 -17.6°
Maximum altitude 05:29:23 55° 265° (W) 717 3.5 -17.1°
Drops below altitude 10° 05:33:32 10° 188° (S) 1,927 6.1 -16.4°
Sets 05:35:46 0° 184° (S) 2,828 7.0 -16.1°
